Temperature
15 15 15 14 14 14 14 13 13 13 12 12 12 12 12 11 11 11 11 11 11 11 11 11 11 11 11 11 11 11 10 10 11 11 11 10 10 10 10 10 10 10 10
15 15 15 14 14 14 13 13 13 12 12 12 12 11 11 11 11 11 11 11 11 11 11 11 10 10 10 10 10 10 10 10 10 10 10 10 10 10 10 10 10 10 10
15 15 14 14 14 14 13 13 13 12 12 12 11 11 11 11 11 11 10 10 10 10 10 10 10 10 10 10 10 10 10 10 10 10 10 10 10 10 10 10 10 10 10
15 14 14 14 14 13 13 13 12 12 12 11 11 11 11 10 10 10 10 10 10 10 10 10 10 10 10 10 10 9 10 10 10 10 10 10 10 10 10 10 10 10 10
14 14 14 13 13 13 13 12 12 12 11 11 11 11 11 10 10 10 10 10 10 10 10 10 9 10 9 9 9 9 9 9 9 9 9 9 9 9 9 9 9 9 9
14 13 13 13 13 13 12 12 12 11 11 11 10 10 10 10 10 10 10 10 10 9 9 9 9 9 9 9 9 9 9 9 9 9 9 9 9 9 9 9 9 9 9
13 13 13 13 13 12 12 12 11 11 11 11 10 10 10 10 10 10 10 9 9 9 9 9 9 9 9 9 9 9 9 9 9 9 9 9 9 9 9 9 8 9 8
13 13 13 12 12 12 12 11 11 11 11 10 10 10 10 10 10 10 10 9 9 9 9 8 8 8 8 8 8 8 8 8 8 8 8 8 8 8 8 8 8 8 8
12 12 12 12 12 12 11 11 11 10 10 10 10 9 9 9 9 9 9 9 8 8 8 8 8 8 8 8 7 7 8 8 8 8 8 8 8 8 8 8 8 8 8
12 12 12 12 11 11 11 11 10 10 10 10 9 9 9 9 9 9 9 8 8 8 8 8 8 8 8 8 7 7 7 7 8 8 8 8 8 8 8 8 8 7 7
12 11 11 11 11 11 11 10 10 10 10 9 9 9 9 9 9 9 8 8 8 8 7 7 7 7 7 7 7 7 7 7 7 7 7 7 7 7 7 7 7 7 7
11 11 11 11 11 10 10 10 10 9 9 9 9 8 8 8 8 8 8 8 8 7 7 7 7 7 7 7 7 7 7 7 6 7 7 7 7 7 7 7 7 7 7
11 10 10 10 10 10 10 10 9 9 9 8 8 8 8 8 8 8 8 8 7 7 7 7 7 7 6 6 6 6 6 6 6 6 6 6 6 6 6 7 7 7 7
10 10 10 10 10 9 9 9 9 9 8 8 8 8 8 7 7 7 7 7 7 6 6 6 6 6 6 6 6 6 6 5 5 5 5 5 5 5 6 6 6 6 6
9 9 9 9 9 9 9 9 8 8 8 8 8 7 7 7 7 7 7 7 6 6 6 6 5 5 5 5 5 5 5 5 5 5 5 5 5 5 5 5 5 5 5
9 8 8 8 8 8 8 8 8 8 8 8 8 7 7 7 7 7 6 6 6 6 5 5 5 5 5 5 4 4 4 4 4 4 4 4 4 5 4 4 5 5 5
8 8 8 8 8 8 7 7 7 7 7 7 7 7 7 7 6 6 6 6 5 5 5 4 4 4 4 4 4 4 4 4 4 4 4 4 4 4 4 4 4 4 4
8 8 8 8 7 7 7 7 7 7 6 6 6 6 6 6 6 6 5 5 4 4 4 4 4 4 4 4 3 3 3 3 3 3 3 3 3 3 3 3 3 3 3
8 7 7 7 7 6 6 6 6 6 6 6 6 5 5 5 5 5 5 4 4 4 4 4 3 3 3 3 3 3 3 3 3 3 3 3 3 3 3 3 3 3 3
7 7 7 6 6 6 6 6 5 5 5 5 5 5 5 5 4 4 4 4 3 3 3 3 3 3 3 3 3 2 2 2 2 2 2 2 2 2 2 2 2 2 2
6 6 6 6 5 5 5 5 5 5 5 4 4 4 4 4 4 4 3 3 3 3 3 3 2 2 2 2 2 2 2 2 2 2 2 2 2 2 1 1 1 1 1
6 6 6 5 5 5 5 5 4 4 4 4 4 4 4 4 3 3 3 2 2 2 2 2 2 2 2 2 2 2 2 2 2 1 1 1 1 1 1 1 1 1 1
5 5 5 5 4 4 4 4 4 4 4 3 3 3 3 3 3 2 2 2 2 2 1 1 1 1 2 1 1 1 1 1 1 1 1 1 1 1 1 0 1 1 1
5 5 4 4 4 4 4 3 3 3 3 3 2 2 2 2 2 2 1 1 1 1 1 1 1 1 1 1 1 1 1 1 1 1 1 1 1 0 0 0 0 0 0
4 4 4 4 3 3 3 3 3 2 2 2 2 2 2 2 1 1 1 1 1 1 1 1 0 1 1 1 1 1 1 1 1 0 0 0 0 0 -0 -0 -0 -0 -0
4 4 4 3 3 3 2 2 2 2 2 2 1 1 1 1 1 1 1 0 0 0 0 0 0 0 0 0 0 0 0 0 0 0 0 -0 -0 -0 -0 -0 -0 -1 -1
Wind_Speed
8 8 7 6 5 5 5 4 4 4 4 4 3 3 2 2 2 2 2 2 3 3 3 3 3 3 3 2 2 3 3 4 4 3 2 2 2 3 2 2 2 2 1
8 7 7 6 5 5 5 5 5 4 4 4 4 3 3 2 2 3 3 3 3 3 3 3 3 2 3 3 3 3 3 4 4 4 3 3 3 3 3 2 2 2 2
7 7 7 7 6 6 5 5 5 5 4 4 4 4 3 3 3 3 3 4 4 4 3 3 4 4 4 3 4 4 3 4 4 5 4 3 3 2 3 3 2 2 2
7 7 7 7 6 6 5 5 5 5 5 4 4 4 4 3 3 3 4 4 4 4 3 4 4 4 4 4 4 4 4 4 5 5 4 4 3 3 3 3 3 2 3
7 7 6 6 5 5 5 5 5 5 4 4 4 4 4 4 3 4 4 4 4 4 4 4 4 3 4 4 4 4 4 5 5 5 4 4 4 3 3 3 3 3 3
6 6 6 5 5 5 5 5 5 4 4 4 4 4 3 3 1 3 5 5 5 4 4 4 3 3 3 4 5 5 5 6 5 5 5 5 5 4 3 3 3 3 3
6 5 5 5 5 5 5 5 5 5 4 4 4 4 4 2 1 2 4 4 5 4 4 4 3 3 4 4 4 5 6 6 7 6 6 6 5 5 4 5 4 5 4
5 4 4 4 4 5 5 5 5 4 4 4 4 4 3 3 2 2 4 5 5 4 4 4 4 4 3 4 4 5 5 5 6 6 6 6 6 5 5 6 6 5 5
4 4 4 4 4 5 5 5 5 5 4 4 4 4 4 3 3 3 4 4 4 4 4 4 4 4 2 5 5 5 5 5 5 6 5 5 5 5 5 4 4 5 5
3 3 3 4 4 5 5 5 4 4 4 4 4 4 5 4 3 4 5 3 4 4 4 4 3 3 3 5 6 6 6 5 5 4 5 6 5 5 6 6 5 5 5
3 3 3 4 4 4 4 4 4 4 4 4 4 4 4 4 4 5 5 4 4 4 4 4 3 2 3 5 6 6 6 6 5 5 4 4 4 4 4 5 5 5 6
3 3 3 3 3 3 4 4 4 4 5 4 4 4 4 4 3 4 5 5 5 5 5 4 3 3 4 5 4 4 5 6 4 4 4 4 4 4 4 4 5 5 6
3 3 3 3 3 3 4 4 4 4 4 4 4 4 3 3 3 4 5 6 6 5 4 4 4 3 4 5 4 5 5 4 4 4 4 4 4 5 4 4 4 5 5
3 3 3 3 2 3 3 3 4 4 4 4 4 4 4 3 3 3 3 4 5 5 5 4 5 5 5 4 4 4 4 3 4 4 4 4 4 4 4 3 4 4 4
3 3 2 2 2 2 2 2 3 3 3 4 4 4 4 4 3 2 3 3 4 4 4 4 4 3 4 4 4 4 4 4 4 4 4 4 4 4 4 4 4 4 5
3 3 2 2 2 2 2 1 0 2 1 2 3 4 3 3 2 2 3 3 3 4 4 4 4 4 5 5 5 4 4 4 4 5 5 5 5 5 4 4 4 5 5
4 3 2 2 2 2 2 2 2 1 2 2 2 2 3 2 2 2 2 3 4 4 5 5 5 5 5 5 5 5 5 5 4 5 5 5 5 5 5 4 4 4 5
4 3 3 3 3 3 3 3 3 2 2 2 2 3 3 3 3 3 3 3 3 4 4 5 5 5 5 5 5 5 5 5 5 5 5 5 5 5 5 5 5 5 5
3 3 3 3 3 3 3 3 3 3 3 3 2 2 3 3 4 4 4 4 4 4 5 5 5 5 5 5 5 5 5 5 5 5 5 5 5 5 5 5 5 5 6
3 2 3 3 3 3 3 3 3 3 3 3 3 3 2 3 4 3 4 4 5 5 5 5 5 5 5 5 5 5 5 5 5 5 5 5 5 5 6 6 6 6 6
3 3 4 3 3 3 3 3 3 3 4 4 4 2 2 4 4 4 4 5 5 5 5 5 5 5 5 5 5 5 6 5 5 5 5 5 5 5 5 5 6 6 5
3 3 3 3 3 2 3 3 3 4 4 4 3 2 3 4 4 5 5 5 5 5 5 5 5 4 4 5 5 5 5 5 5 5 5 5 5 5 5 5 5 5 5
3 3 3 3 3 2 3 3 3 4 4 4 4 3 3 4 4 4 5 5 5 5 5 4 5 4 4 5 4 5 5 5 5 5 5 5 5 5 5 5 6 6 6
3 3 3 3 3 3 3 3 4 4 4 4 4 4 4 4 4 5 4 4 4 4 4 4 5 5 6 5 4 5 5 5 5 5 6 5 5 5 5 5 6 6 6
3 4 4 4 4 4 4 4 4 4 4 4 4 4 4 4 4 4 4 4 4 4 4 4 4 5 6 6 5 4 4 4 5 5 5 5 6 6 6 6 6 6 6
4 4 4 3 4 4 4 4 4 4 4 4 4 4 4 4 4 4 4 4 4 4 4 4 5 5 6 5 5 4 4 4 4 5 5 4 5 5 6 5 6 6 6
Wind_Direction
195 194 194 198 200 203 205 204 204 202 198 201 206 214 223 236 248 251 265 266 273 271 272 272 266 264 258 253 259 268 264 261 265 274 282 284 258 276 275 280 295 277 201
194 194 196 199 202 206 210 207 203 204 205 207 207 213 224 239 250 261 267 263 266 270 270 271 267 260 258 254 256 261 264 259 257 270 270 268 255 266 272 272 272 265 272
191 195 195 199 204 209 212 209 207 207 208 209 210 219 226 234 244 258 265 268 269 273 273 270 269 263 264 259 257 262 263 262 259 258 267 270 258 256 262 266 266 271 273
189 195 200 202 202 205 207 206 206 208 211 214 218 222 229 237 246 256 262 266 267 268 268 267 267 264 268 269 262 263 262 258 254 253 258 259 256 253 252 262 269 269 272
187 193 201 201 196 194 196 199 201 205 211 213 219 225 233 241 254 264 260 260 263 265 265 268 272 283 300 286 276 269 265 260 254 252 253 259 256 247 251 257 268 277 267
190 193 193 195 191 191 196 195 192 196 203 204 213 221 228 244 301 288 274 255 255 258 263 268 268 258 261 263 270 273 274 265 262 261 259 257 260 253 250 253 260 264 268
185 188 190 193 193 193 194 193 193 198 202 208 216 223 232 235 180 241 272 265 255 255 257 264 271 274 270 261 244 236 243 250 258 265 267 267 271 266 254 251 253 260 267
181 179 180 189 191 192 192 194 199 204 208 215 221 224 230 227 190 220 256 249 253 256 258 261 265 264 273 278 261 252 250 246 249 254 263 269 273 280 266 255 257 258 260
180 187 187 185 190 193 196 203 206 204 208 217 220 222 228 222 191 218 251 245 251 255 256 260 269 261 275 278 260 255 256 254 241 249 274 283 299 293 280 260 252 249 255
192 196 195 188 191 199 204 208 209 208 211 217 222 226 228 231 191 211 245 242 249 254 254 252 268 279 265 265 256 258 260 266 268 254 243 241 248 240 239 240 244 249 257
194 190 189 191 195 201 207 208 206 210 214 220 224 227 229 228 199 203 233 244 250 254 254 254 253 256 266 265 266 261 270 277 268 262 262 261 253 251 242 237 241 246 252
182 182 188 195 195 197 201 205 204 206 212 219 227 231 234 225 221 210 224 249 270 255 256 260 263 250 256 262 264 276 278 274 262 259 260 263 262 263 259 254 250 250 251
179 185 193 199 200 202 203 201 201 205 216 225 226 231 233 233 221 209 222 237 255 258 261 282 287 270 259 254 254 263 262 257 257 257 259 264 269 272 264 262 261 257 256
195 194 197 204 205 205 210 210 208 211 218 227 231 235 235 230 232 233 238 239 236 246 257 246 237 241 247 260 257 252 252 256 259 260 262 267 274 270 260 257 258 257 256
210 208 205 206 208 211 215 234 230 228 235 241 242 241 239 238 241 279 264 257 260 258 263 257 256 254 252 253 255 255 251 247 251 259 264 266 265 264 261 259 256 252 256
215 212 207 209 216 220 221 240 13 230 215 247 274 272 256 267 253 241 255 267 270 257 250 246 250 252 253 255 255 253 250 250 253 258 262 263 264 263 259 258 258 256 254
216 215 211 214 219 223 225 238 256 234 184 208 228 256 260 256 226 231 243 236 232 230 239 248 252 254 255 255 255 256 256 256 255 254 257 260 262 263 259 257 256 258 261
221 214 215 220 225 227 226 233 239 247 254 251 221 211 220 226 229 236 243 235 235 230 246 254 259 260 258 257 256 257 260 258 253 252 254 258 260 259 256 257 256 259 262
226 222 221 227 230 230 232 235 238 243 250 252 255 221 202 219 221 226 229 244 251 251 255 260 263 266 266 263 260 258 259 257 253 251 252 256 259 261 256 256 258 257 259
226 214 226 229 229 231 234 239 244 246 253 253 253 258 247 246 251 247 244 253 256 259 263 266 268 270 272 272 268 263 262 260 257 254 254 255 259 262 261 257 256 257 255
233 212 204 222 233 240 245 248 252 251 255 260 260 260 263 253 255 257 259 261 264 266 267 268 269 271 273 274 268 260 257 258 258 258 257 256 258 262 264 258 254 254 258
236 227 221 225 233 241 253 262 264 264 263 267 273 257 225 249 256 257 257 260 263 268 271 270 269 269 272 270 269 265 260 260 260 257 254 254 256 259 263 260 255 253 254
224 222 223 225 230 233 243 256 262 264 267 269 271 268 252 253 258 260 263 266 267 269 271 269 271 271 272 273 269 265 263 264 262 259 254 254 254 255 258 259 256 255 251
220 225 232 237 238 240 243 250 260 266 266 265 266 264 259 257 259 260 264 267 267 266 269 270 270 271 275 276 272 267 268 275 275 264 253 249 251 255 258 260 258 253 252
223 223 229 237 239 242 246 252 256 261 264 262 263 264 260 256 256 258 261 262 265 266 268 272 274 274 276 277 278 279 284 282 277 273 256 249 245 247 252 257 258 254 249
230 226 230 237 242 246 249 252 255 260 264 265 264 264 264 260 261 261 259 260 263 265 267 269 272 277 281 279 279 287 283 267 266 273 267 252 246 247 250 254 258 253 249
Height
1524 1525 1527 1528 1530 1530 1531 1531 1532 1532 1532 1532 1532 1532 1531 1531 1531 1530 1530 1529 1528 1528 1527 1527 1526 1526 1526 1525 1524 1524 1524 1523 1523 1522 1521 1520 1519 1519 1518 1517 1516 1515 1515
1520 1522 1523 1525 1527 1527 1528 1529 1529 1529 1529 1529 1529 1529 1529 1529 1528 1528 1528 1527 1526 1526 1525 1525 1524 1524 1524 1523 1522 1522 1521 1521 1521 1519 1519 1518 1517 1517 1516 1515 1514 1514 1513
1517 1519 1520 1522 1523 1524 1525 1525 1526 1526 1527 1527 1527 1526 1526 1526 1526 1525 1525 1525 1524 1524 1523 1523 1522 1522 1521 1521 1520 1520 1519 1518 1518 1517 1517 1516 1515 1514 1514 1513 1513 1512 1511
1514 1515 1517 1518 1519 1520 1521 1522 1523 1523 1524 1524 1524 1524 1524 1523 1523 1523 1522 1522 1522 1521 1521 1520 1520 1519 1519 1518 1517 1517 1516 1516 1515 1514 1514 1513 1513 1512 1511 1511 1511 1510 1509
1510 1512 1513 1514 1516 1517 1518 1519 1519 1520 1520 1521 1521 1521 1521 1520 1520 1520 1519 1519 1519 1518 1518 1517 1517 1516 1515 1514 1514 1514 1513 1513 1512 1512 1511 1511 1510 1509 1509 1508 1508 1508 1507
1507 1508 1510 1511 1512 1513 1514 1515 1516 1516 1517 1517 1517 1517 1517 1517 1516 1516 1516 1516 1515 1515 1514 1514 1513 1512 1511 1510 1510 1509 1509 1509 1509 1509 1508 1508 1507 1507 1506 1506 1506 1505 1505
1504 1505 1507 1508 1509 1510 1511 1512 1512 1513 1514 1514 1514 1514 1514 1513 1513 1512 1512 1512 1512 1512 1511 1510 1509 1508 1507 1506 1506 1505 1505 1505 1505 1505 1505 1505 1504 1504 1503 1503 1503 1502 1502
1501 1503 1504 1505 1506 1507 1508 1508 1509 1510 1510 1510 1511 1510 1510 1510 1509 1509 1509 1509 1509 1508 1507 1506 1505 1504 1503 1503 1502 1502 1501 1501 1501 1501 1501 1501 1501 1500 1500 1500 1499 1499 1499
1499 1500 1501 1502 1503 1503 1504 1505 1506 1506 1507 1507 1507 1507 1507 1506 1506 1506 1505 1505 1505 1504 1504 1503 1501 1501 1500 1499 1499 1498 1498 1497 1497 1497 1496 1496 1496 1496 1496 1496 1496 1496 1496
1496 1497 1498 1498 1499 1500 1501 1501 1502 1503 1503 1503 1503 1503 1503 1503 1502 1502 1502 1502 1501 1501 1500 1499 1498 1497 1496 1495 1496 1495 1494 1493 1493 1493 1493 1492 1492 1492 1492 1492 1492 1493 1493
1493 1494 1495 1495 1496 1497 1498 1498 1499 1499 1499 1500 1500 1500 1500 1499 1499 1499 1498 1498 1498 1497 1497 1496 1495 1493 1492 1492 1492 1491 1490 1490 1490 1490 1489 1489 1489 1489 1489 1489 1489 1489 1489
1490 1490 1491 1492 1493 1494 1494 1495 1495 1496 1496 1496 1496 1496 1496 1496 1496 1495 1495 1495 1494 1494 1493 1492 1491 1490 1489 1488 1488 1487 1486 1486 1486 1485 1485 1485 1485 1485 1485 1485 1485 1484 1484
1487 1488 1488 1489 1490 1490 1491 1491 1492 1492 1493 1493 1493 1493 1493 1492 1492 1492 1491 1491 1490 1490 1489 1489 1488 1486 1485 1484 1484 1483 1482 1482 1482 1481 1481 1481 1481 1481 1481 1481 1480 1480 1480
1484 1485 1485 1486 1487 1487 1488 1488 1489 1489 1489 1489 1489 1489 1489 1488 1488 1488 1487 1487 1487 1486 1486 1485 1484 1483 1482 1481 1480 1479 1479 1478 1478 1478 1478 1477 1477 1477 1477 1476 1476 1476 1476
1482 1483 1483 1483 1483 1484 1484 1485 1485 1485 1486 1486 1485 1485 1485 1485 1484 1484 1483 1483 1483 1482 1482 1481 1480 1480 1479 1477 1477 1476 1475 1475 1474 1474 1474 1474 1473 1473 1473 1473 1472 1472 1471
1480 1480 1480 1480 1480 1481 1481 1481 1481 1482 1481 1481 1481 1481 1481 1481 1480 1480 1480 1479 1479 1479 1478 1477 1476 1475 1474 1474 1473 1472 1472 1471 1471 1470 1470 1470 1469 1469 1469 1468 1468 1468 1467
1477 1477 1477 1477 1477 1478 1478 1478 1478 1478 1477 1477 1477 1477 1477 1476 1476 1476 1476 1475 1475 1475 1474 1473 1472 1471 1470 1470 1469 1468 1468 1467 1466 1466 1466 1465 1465 1465 1464 1464 1463 1463 1463
1474 1474 1474 1474 1474 1475 1475 1475 1474 1474 1474 1473 1473 1473 1473 1472 1472 1472 1472 1471 1471 1470 1469 1469 1468 1467 1466 1465 1464 1464 1463 1462 1462 1462 1461 1461 1460 1460 1460 1459 1459 1459 1458
1471 1471 1471 1471 1471 1471 1471 1471 1471 1471 1470 1470 1470 1469 1469 1469 1468 1468 1467 1467 1466 1466 1465 1464 1463 1463 1462 1461 1460 1459 1459 1458 1457 1457 1457 1456 1456 1455 1455 1454 1454 1454 1453
1468 1468 1468 1468 1468 1468 1468 1468 1468 1467 1467 1466 1466 1466 1465 1465 1464 1464 1463 1462 1462 1461 1460 1460 1459 1458 1457 1457 1456 1455 1454 1454 1453 1452 1452 1451 1451 1450 1450 1449 1449 1449 1448
1465 1465 1465 1465 1465 1465 1465 1465 1464 1464 1463 1463 1462 1462 1461 1460 1460 1459 1458 1457 1457 1456 1455 1455 1454 1453 1452 1452 1451 1450 1450 1449 1448 1448 1447 1446 1446 1445 1445 1444 1444 1444 1444
1461 1461 1461 1461 1461 1461 1461 1461 1461 1460 1459 1459 1458 1457 1456 1456 1455 1455 1453 1453 1452 1451 1450 1450 1449 1448 1447 1447 1446 1445 1445 1444 1444 1443 1442 1442 1441 1441 1440 1440 1439 1439 1439
1458 1458 1458 1458 1458 1457 1457 1457 1456 1456 1455 1454 1454 1453 1452 1451 1450 1449 1448 1448 1447 1446 1446 1445 1444 1443 1443 1442 1441 1440 1440 1439 1439 1438 1438 1437 1436 1436 1435 1435 1435 1434 1434
1454 1454 1454 1454 1454 1453 1453 1452 1452 1451 1451 1450 1449 1448 1447 1446 1445 1444 1443 1443 1442 1441 1440 1440 1439 1438 1438 1437 1436 1435 1435 1434 1434 1433 1433 1432 1432 1431 1431 1430 1430 1430 1429
1450 1450 1450 1450 1450 1449 1449 1448 1447 1447 1446 1445 1444 1443 1442 1441 1440 1439 1439 1438 1437 1436 1435 1435 1434 1433 1433 1432 1431 1430 1430 1429 1429 1428 1428 1427 1427 1426 1426 1426 1425 1425 1425
1446 1446 1446 1445 1445 1445 1444 1444 1443 1442 1441 1440 1439 1439 1438 1437 1436 1435 1434 1433 1432 1431 1431 1430 1429 1428 1428 1427 1426 1426 1425 1424 1424 1423 1423 1422 1422 1421 1421 1421 1420 1420 1420